Back to catalog

IRIDE-MS1-EAG2-10

AliveMilitarySSO
NORAD 68451·PAYLOAD·🇮🇹 Italy

Launched Mar 30, 2026 from Vandenberg Space Force Base

Loading…

Next Passes (next 24 hours)

TLE

FreshSource: Space-Track

Epoch: Sep 14, 2026, 08:40 UTC

1 68451U 26067AM  26257.36139952  .00006210  00000-0  29232-3 0  9995
2 68451  97.4601 214.6877 0003646  80.8685 279.2963 15.19895478 25486

Track IRIDE-MS1-EAG2-10 in real time with AllMySat

Download on the App Store